TimeEST,TemperatureF,Dew PointF,Humidity,Sea Level PressureIn,VisibilityMPH,Wind Direction,Wind SpeedMPH,Gust SpeedMPH,PrecipitationIn,Events,Conditions,WindDirDegrees,DateUTC
12:53 AM,64.9,59.0,81,30.04,10.0,North,6.9,-,N/A,,Mostly Cloudy,360,2012-11-20 05:53:00
1:53 AM,64.9,57.9,78,30.03,10.0,NNW,6.9,-,N/A,,Overcast,330,2012-11-20 06:53:00
2:53 AM,64.0,55.9,75,30.02,10.0,NNW,10.4,-,N/A,,Overcast,330,2012-11-20 07:53:00
3:27 AM,64.4,57.2,77,30.02,10.0,NNW,10.4,16.1,N/A,,Overcast,330,2012-11-20 08:27:00
3:53 AM,64.9,57.0,75,30.01,10.0,North,9.2,-,N/A,,Overcast,350,2012-11-20 08:53:00
4:53 AM,64.9,55.9,73,30.00,10.0,NNW,9.2,17.3,N/A,,Overcast,340,2012-11-20 09:53:00
5:27 AM,64.4,55.4,73,30.00,10.0,NNW,11.5,20.7,N/A,,Overcast,330,2012-11-20 10:27:00
5:53 AM,63.0,55.9,78,30.00,10.0,NNW,8.1,19.6,N/A,,Overcast,340,2012-11-20 10:53:00
6:53 AM,63.0,55.9,78,30.02,10.0,NW,10.4,16.1,N/A,,Overcast,320,2012-11-20 11:53:00
7:53 AM,63.0,55.9,78,30.04,10.0,NNW,10.4,17.3,N/A,,Overcast,340,2012-11-20 12:53:00
8:53 AM,64.0,55.9,75,30.06,10.0,NNW,10.4,18.4,N/A,,Overcast,330,2012-11-20 13:53:00
9:53 AM,64.9,55.9,73,30.07,10.0,NNW,8.1,16.1,N/A,,Overcast,340,2012-11-20 14:53:00
10:53 AM,66.0,57.0,73,30.06,10.0,NNW,8.1,17.3,N/A,,Overcast,340,2012-11-20 15:53:00
11:53 AM,66.0,57.9,75,30.04,10.0,NNW,6.9,17.3,N/A,,Overcast,340,2012-11-20 16:53:00
12:53 PM,68.0,57.9,70,30.00,10.0,NNW,8.1,-,N/A,,Overcast,330,2012-11-20 17:53:00
1:53 PM,66.9,59.0,76,29.98,10.0,NNW,10.4,16.1,N/A,,Overcast,330,2012-11-20 18:53:00
2:53 PM,66.9,59.0,76,29.97,10.0,NNW,9.2,-,N/A,,Overcast,330,2012-11-20 19:53:00
3:53 PM,66.0,59.0,78,29.96,10.0,North,6.9,-,N/A,,Overcast,350,2012-11-20 20:53:00
4:53 PM,66.9,59.0,76,29.96,10.0,NNW,9.2,-,N/A,,Overcast,330,2012-11-20 21:53:00
5:53 PM,66.9,59.0,76,29.97,10.0,NNW,8.1,16.1,N/A,,Overcast,330,2012-11-20 22:53:00
6:37 PM,66.2,59.0,78,29.99,10.0,North,9.2,-,N/A,,Overcast,350,2012-11-20 23:37:00
6:46 PM,66.2,60.8,83,29.99,10.0,North,6.9,-,N/A,,Overcast,350,2012-11-20 23:46:00
6:53 PM,66.9,60.1,79,29.99,10.0,North,6.9,-,N/A,,Overcast,350,2012-11-20 23:53:00
7:31 PM,66.2,59.0,78,29.99,10.0,North,5.8,-,N/A,,Partly Cloudy,350,2012-11-21 00:31:00
7:53 PM,66.9,59.0,76,30.00,10.0,North,3.5,-,N/A,,Mostly Cloudy,360,2012-11-21 00:53:00
8:26 PM,66.2,57.2,73,30.00,10.0,NNW,5.8,-,N/A,,Scattered Clouds,330,2012-11-21 01:26:00
8:53 PM,66.9,59.0,76,30.01,10.0,Variable,3.5,-,N/A,,Partly Cloudy,0,2012-11-21 01:53:00
9:13 PM,66.2,60.8,83,30.01,10.0,NW,3.5,-,N/A,,Mostly Cloudy,310,2012-11-21 02:13:00
9:53 PM,69.1,61.0,75,30.01,10.0,NW,8.1,-,N/A,,Overcast,320,2012-11-21 02:53:00
10:33 PM,69.8,60.8,73,30.01,10.0,NW,8.1,17.3,N/A,,Scattered Clouds,320,2012-11-21 03:33:00
10:53 PM,69.1,61.0,75,30.01,10.0,NNW,9.2,-,N/A,,Partly Cloudy,330,2012-11-21 03:53:00
11:36 PM,69.8,62.6,78,30.00,10.0,NNW,8.1,17.3,N/A,,Mostly Cloudy,330,2012-11-21 04:36:00
11:51 PM,69.8,62.6,78,30.00,10.0,NNW,8.1,17.3,N/A,,Scattered Clouds,330,2012-11-21 04:51:00
11:53 PM,69.1,62.1,78,30.00,10.0,NNW,11.5,18.4,N/A,,Scattered Clouds,330,2012-11-21 04:53:00